Location: Newark
(11.0000°N, 10.0000°W)
Time: 06:12:24
(UTC+00:00)

OTV 5 (USA 277) - Visible Passes

Search period start: 18 October 2019 00:00
Search period end: 28 October 2019 00:00
Orbit: 310 x 324 km, 54.5° (Epoch: 08 October)

Date Brightness Start Highest point End Pass type
(mag) Time Alt. Az. Time Alt. Az. Time Alt. Az.
22 Oct ? 20:10:56 10° WSW 20:10:58 10° WSW 20:10:58 10° WSW visible
23 Oct ? 05:52:07 10° N 05:54:16 21° NE 05:56:25 10° ESE visible
23 Oct ? 18:51:00 10° S 18:53:23 29° ESE 18:55:13 14° ENE visible
24 Oct ? 06:06:06 10° NW 06:08:46 65° WSW 06:11:26 10° SSE visible
24 Oct ? 19:05:16 10° SW 19:07:51 43° WNW 19:10:22 11° NNE visible
25 Oct ? 04:49:11 11° NE 04:49:11 11° NE 04:49:48 10° ENE visible
25 Oct ? 19:22:12 10° WNW 19:22:25 10° NW 19:22:39 10° NW visible
26 Oct ? 05:04:23 34° ESE 05:04:23 34° ESE 05:06:15 10° SE visible
27 Oct ? 05:19:33 17° S 05:19:33 17° S 05:20:28 10° S visible
